TimeEDT,TemperatureF,Dew PointF,Humidity,Sea Level PressureIn,VisibilityMPH,Wind Direction,Wind SpeedMPH,Gust SpeedMPH,PrecipitationIn,Events,Conditions,WindDirDegrees,DateUTC
12:53 AM,41.0,23.0,49,29.86,10.0,ENE,10.4,-,N/A,,Clear,60,2013-03-24 04:53:00
1:53 AM,39.9,21.9,49,29.83,10.0,ENE,10.4,-,N/A,,Overcast,60,2013-03-24 05:53:00
2:53 AM,39.9,21.0,47,29.84,10.0,ENE,11.5,-,N/A,,Overcast,70,2013-03-24 06:53:00
3:53 AM,39.0,21.0,49,29.82,10.0,ENE,5.8,-,N/A,,Overcast,60,2013-03-24 07:53:00
4:53 AM,37.9,23.0,55,29.80,10.0,NNE,8.1,-,N/A,,Overcast,30,2013-03-24 08:53:00
5:53 AM,37.0,25.0,62,29.77,7.0,NNE,10.4,-,0.00,Snow,Light Snow,30,2013-03-24 09:53:00
6:53 AM,35.1,27.0,72,29.75,5.0,NE,15.0,-,0.00,Snow,Light Snow,50,2013-03-24 10:53:00
7:06 AM,35.6,26.6,70,29.74,2.5,NE,10.4,20.7,0.00,Snow,Light Snow,50,2013-03-24 11:06:00
7:15 AM,33.8,28.4,81,29.74,1.8,NE,10.4,19.6,0.00,Snow,Light Snow,40,2013-03-24 11:15:00
7:22 AM,33.8,28.4,81,29.75,2.5,NE,11.5,-,0.00,Snow,Light Snow,40,2013-03-24 11:22:00
7:34 AM,33.8,28.4,81,29.75,1.8,NE,9.2,-,0.00,Snow,Light Snow,50,2013-03-24 11:34:00
7:43 AM,33.8,28.4,81,29.74,2.0,ENE,12.7,-,0.00,Snow,Light Snow,60,2013-03-24 11:43:00
7:53 AM,33.1,28.0,82,29.74,3.0,NE,10.4,-,0.00,Snow,Light Snow,50,2013-03-24 11:53:00
8:53 AM,34.0,28.0,79,29.71,6.0,ENE,12.7,18.4,0.00,,Haze,60,2013-03-24 12:53:00
9:53 AM,35.1,27.0,72,29.69,7.0,NE,9.2,-,N/A,,Overcast,50,2013-03-24 13:53:00
10:51 AM,37.4,28.4,70,29.64,7.0,East,12.7,24.2,N/A,,Overcast,90,2013-03-24 14:51:00
10:53 AM,37.0,28.0,70,29.65,7.0,ENE,12.7,24.2,N/A,,Overcast,70,2013-03-24 14:53:00
11:15 AM,37.4,28.4,70,29.63,7.0,East,15.0,19.6,N/A,,Overcast,80,2013-03-24 15:15:00
11:28 AM,37.4,28.4,70,29.63,8.0,East,10.4,18.4,N/A,,Overcast,90,2013-03-24 15:28:00
11:53 AM,37.9,28.9,70,29.62,8.0,East,15.0,-,N/A,,Overcast,80,2013-03-24 15:53:00
12:10 PM,37.4,28.4,70,29.60,9.0,East,17.3,23.0,N/A,,Overcast,80,2013-03-24 16:10:00
12:53 PM,39.9,28.9,65,29.55,10.0,East,19.6,31.1,N/A,,Overcast,80,2013-03-24 16:53:00
1:48 PM,39.2,28.4,65,29.50,10.0,ENE,18.4,27.6,N/A,,Overcast,70,2013-03-24 17:48:00
1:53 PM,39.9,28.9,65,29.51,10.0,ENE,16.1,25.3,N/A,,Overcast,70,2013-03-24 17:53:00
2:53 PM,37.9,30.0,73,29.45,9.0,East,17.3,27.6,N/A,,Overcast,80,2013-03-24 18:53:00
3:51 PM,35.6,30.2,81,29.44,2.0,East,8.1,-,0.04,Rain,Rain,90,2013-03-24 19:51:00
3:53 PM,35.1,30.0,82,29.45,1.8,East,11.5,-,0.04,Rain,Heavy Rain,80,2013-03-24 19:53:00
4:05 PM,33.8,30.2,87,29.44,3.0,East,10.4,-,0.02,Rain,Light Rain,90,2013-03-24 20:05:00
4:27 PM,33.8,30.2,87,29.44,3.0,East,6.9,-,0.03,Snow,Light Snow,90,2013-03-24 20:27:00
4:31 PM,33.8,30.2,87,29.44,1.8,East,6.9,-,0.04,Snow,Light Snow,90,2013-03-24 20:31:00
4:53 PM,34.0,30.9,89,29.44,2.5,East,5.8,-,0.05,Snow,Light Snow,80,2013-03-24 20:53:00
5:19 PM,33.8,30.2,87,29.43,1.0,East,5.8,-,0.02,Snow,Light Snow,100,2013-03-24 21:19:00
5:31 PM,33.8,30.2,87,29.42,1.0,East,6.9,-,0.04,Snow,Light Snow,90,2013-03-24 21:31:00
5:44 PM,33.8,30.2,87,29.42,0.5,East,6.9,-,0.07,Snow,Snow,80,2013-03-24 21:44:00
5:53 PM,33.1,30.9,92,29.43,0.5,East,9.2,-,0.10,Snow,Snow,80,2013-03-24 21:53:00
6:00 PM,33.8,30.2,87,29.38,0.2,ENE,12.7,-,0.02,Snow,Snow,60,2013-03-24 22:00:00
6:28 PM,33.8,30.2,87,29.42,0.8,ENE,3.5,-,0.08,Snow,Snow,70,2013-03-24 22:28:00
6:39 PM,33.8,30.2,87,29.42,1.2,East,4.6,-,0.08,Snow,Light Snow,80,2013-03-24 22:39:00
6:53 PM,33.1,30.9,92,29.43,1.0,ENE,6.9,-,0.09,Snow,Light Snow,70,2013-03-24 22:53:00
7:07 PM,33.8,30.2,87,29.42,0.8,ENE,5.8,-,0.00,Snow,Light Snow,70,2013-03-24 23:07:00
8:11 PM,33.8,30.2,87,29.43,1.2,NNE,8.1,-,0.00,Snow,Light Snow,20,2013-03-25 00:11:00
8:53 PM,32.0,30.0,92,29.46,1.0,NNE,9.2,-,0.01,Snow,Light Snow,30,2013-03-25 00:53:00
9:53 PM,30.9,28.0,89,29.46,1.2,NNE,12.7,-,0.00,Snow,Light Snow,20,2013-03-25 01:53:00
10:50 PM,30.2,28.4,93,29.46,0.8,North,9.2,-,0.01,Snow,Light Snow,360,2013-03-25 02:50:00
10:53 PM,30.9,28.0,89,29.48,0.8,North,9.2,-,0.01,Snow,Light Snow,360,2013-03-25 02:53:00
11:36 PM,30.2,28.4,93,29.47,1.0,North,9.2,-,0.01,Snow,Light Snow,350,2013-03-25 03:36:00
11:53 PM,30.0,27.0,88,29.49,1.2,North,9.2,-,0.01,Snow,Light Snow,350,2013-03-25 03:53:00